TimePDT,TemperatureF,Dew PointF,Humidity,Sea Level PressureIn,VisibilityMPH,Wind Direction,Wind SpeedMPH,Gust SpeedMPH,PrecipitationIn,Events,Conditions,WindDirDegrees,DateUTC
12:58 AM,40.5,33.6,77,30.03,10.0,NNW,6.9,-,N/A,,Overcast,330,2013-10-11 07:58:00
1:13 AM,41.0,33.8,76,30.00,10.0,NNW,5.8,-,N/A,,Overcast,330,2013-10-11 08:13:00
1:50 AM,39.2,33.8,81,30.01,10.0,NW,5.8,-,N/A,,Mostly Cloudy,310,2013-10-11 08:50:00
1:58 AM,40.5,34.5,79,30.04,10.0,NW,5.8,-,0.00,,Mostly Cloudy,320,2013-10-11 08:58:00
2:14 AM,39.2,33.8,81,30.01,10.0,NW,5.8,-,N/A,,Mostly Cloudy,320,2013-10-11 09:14:00
2:33 AM,39.2,32.0,75,30.01,10.0,North,3.5,-,N/A,,Mostly Cloudy,360,2013-10-11 09:33:00
2:58 AM,36.3,32.4,86,30.06,10.0,North,-9999.0,-,0.00,,Overcast,0,2013-10-11 09:58:00
3:58 AM,36.0,33.4,91,30.07,10.0,Calm,Calm,-,N/A,,Mostly Cloudy,0,2013-10-11 10:58:00
4:58 AM,37.2,35.2,93,30.07,10.0,Calm,Calm,-,N/A,,Overcast,0,2013-10-11 11:58:00
5:56 AM,35.6,33.8,93,30.06,10.0,West,2.3,-,N/A,,Overcast,260,2013-10-11 12:56:00
5:58 AM,36.1,34.3,93,30.10,10.0,West,2.3,-,N/A,,Overcast,260,2013-10-11 12:58:00
6:16 AM,37.4,35.6,93,30.05,10.0,Calm,Calm,-,N/A,,Overcast,0,2013-10-11 13:16:00
6:37 AM,37.4,35.6,93,30.06,10.0,WNW,2.3,-,N/A,,Overcast,300,2013-10-11 13:37:00
6:48 AM,37.4,35.6,93,30.06,10.0,NNW,2.3,-,N/A,,Overcast,340,2013-10-11 13:48:00
6:58 AM,37.0,35.4,94,30.11,10.0,NNW,3.5,-,0.00,,Overcast,340,2013-10-11 13:58:00
7:12 AM,37.4,35.6,93,30.07,10.0,Variable,2.3,-,N/A,,Overcast,0,2013-10-11 14:12:00
7:29 AM,37.4,35.6,93,30.08,10.0,NNE,4.6,-,N/A,,Overcast,20,2013-10-11 14:29:00
7:58 AM,37.4,35.4,93,30.12,10.0,NNE,4.6,-,0.00,,Overcast,20,2013-10-11 14:58:00
7:59 AM,37.4,35.6,93,30.07,10.0,NNE,3.5,-,N/A,,Overcast,20,2013-10-11 14:59:00
8:08 AM,37.4,35.6,93,30.07,10.0,NNE,4.6,-,N/A,,Mostly Cloudy,30,2013-10-11 15:08:00
8:55 AM,39.2,37.4,93,30.08,3.0,NNE,5.8,-,N/A,,Partly Cloudy,20,2013-10-11 15:55:00
8:58 AM,38.8,37.4,95,30.13,2.0,NNE,5.8,-,0.00,,Partly Cloudy,30,2013-10-11 15:58:00
9:02 AM,39.2,37.4,93,30.09,1.0,NE,5.8,-,N/A,,Mist,40,2013-10-11 16:02:00
9:04 AM,39.2,37.4,93,30.09,0.8,NNE,5.8,-,N/A,,Mist,30,2013-10-11 16:04:00
9:05 AM,41.0,37.4,87,30.09,0.5,NNE,5.8,-,N/A,Fog,Fog,20,2013-10-11 16:05:00
9:06 AM,41.0,37.4,87,30.09,0.5,NNE,5.8,-,N/A,Fog,Fog,20,2013-10-11 16:06:00
9:10 AM,41.0,37.4,87,30.09,0.5,NNE,3.5,-,N/A,Fog,Fog,20,2013-10-11 16:10:00
9:14 AM,41.0,37.4,87,30.09,0.5,NNE,3.5,-,N/A,,Haze,30,2013-10-11 16:14:00
9:21 AM,41.0,37.4,87,30.09,0.8,NE,3.5,-,N/A,,Haze,50,2013-10-11 16:21:00
9:22 AM,41.0,37.4,87,30.09,0.8,NE,3.5,-,N/A,,Haze,40,2013-10-11 16:22:00
9:23 AM,41.0,37.4,87,30.09,1.0,NNE,2.3,-,N/A,,Haze,30,2013-10-11 16:23:00
9:25 AM,41.0,37.4,87,30.09,1.2,NE,3.5,-,N/A,,Haze,40,2013-10-11 16:25:00
9:30 AM,42.8,37.4,81,30.09,3.0,ENE,4.6,-,N/A,,Haze,60,2013-10-11 16:30:00
9:45 AM,42.8,37.4,81,30.10,6.0,NE,4.6,-,N/A,,Mostly Cloudy,50,2013-10-11 16:45:00
9:55 AM,42.8,37.4,81,30.10,4.0,NNE,3.5,-,N/A,,Haze,20,2013-10-11 16:55:00
9:58 AM,42.1,37.9,85,30.14,4.0,NNE,3.5,-,0.00,,Haze,30,2013-10-11 16:58:00
10:08 AM,42.8,39.2,87,30.10,10.0,NNE,4.6,-,N/A,,Scattered Clouds,20,2013-10-11 17:08:00
10:43 AM,44.6,39.2,81,30.10,2.5,NNE,5.8,-,N/A,,Haze,30,2013-10-11 17:43:00
10:58 AM,44.6,37.4,76,30.15,3.0,NNE,4.6,-,N/A,,Haze,30,2013-10-11 17:58:00
11:03 AM,46.4,37.4,71,30.10,2.5,Variable,3.5,-,N/A,,Haze,0,2013-10-11 18:03:00
11:13 AM,46.4,37.4,71,30.11,10.0,Variable,2.3,-,N/A,,Clear,0,2013-10-11 18:13:00
11:58 AM,49.6,32.5,52,30.13,10.0,Variable,3.5,-,N/A,,Clear,0,2013-10-11 18:58:00
12:52 PM,51.8,32.0,47,30.08,2.0,NNE,2.3,-,N/A,,Haze,30,2013-10-11 19:52:00
12:53 PM,51.8,32.0,47,30.08,4.0,Variable,1.2,-,N/A,,Haze,0,2013-10-11 19:53:00
12:58 PM,52.3,32.0,46,30.11,10.0,NNE,5.8,-,N/A,,Clear,20,2013-10-11 19:58:00
1:20 PM,53.6,32.0,44,30.07,10.0,NNE,4.6,-,N/A,Rain,Light Rain,20,2013-10-11 20:20:00
1:27 PM,51.8,32.0,47,30.07,10.0,Variable,1.2,-,N/A,,Partly Cloudy,0,2013-10-11 20:27:00
1:58 PM,52.9,30.9,43,30.10,10.0,West,5.8,-,0.00,,Scattered Clouds,270,2013-10-11 20:58:00
2:58 PM,52.9,31.1,43,30.10,10.0,NW,2.3,-,N/A,,Overcast,310,2013-10-11 21:58:00
3:58 PM,52.7,30.4,42,30.10,10.0,Variable,1.2,-,N/A,,Overcast,0,2013-10-11 22:58:00
6:58 PM,48.2,34.2,58,30.09,10.0,NE,5.8,-,N/A,,Overcast,50,2013-10-12 01:58:00
7:58 PM,46.0,33.3,61,30.08,10.0,ENE,4.6,-,N/A,,Mostly Cloudy,70,2013-10-12 02:58:00
8:58 PM,45.0,33.6,64,30.07,10.0,NE,6.9,-,N/A,,Mostly Cloudy,40,2013-10-12 03:58:00
9:58 PM,43.2,34.2,71,30.07,10.0,NE,3.5,-,N/A,,Mostly Cloudy,50,2013-10-12 04:58:00
10:58 PM,42.4,36.0,78,30.07,10.0,NE,5.8,-,N/A,,Overcast,50,2013-10-12 05:58:00
11:58 PM,43.7,35.8,74,30.05,10.0,East,2.3,-,N/A,,Mostly Cloudy,100,2013-10-12 06:58:00